User: anonymous   Login
Location: Unspecified
(0.0000°N, 0.0000°E)
Time: 00:56:53
(UTC+01:00)
Language:

Cosmos 1833 Rocket - Orbit

View from above orbital plane
View from above orbital plane
View from above satellite
View from above satellite

Ground track
Ground track

The orbit data is extracted from the following two-line orbital elements,

1 17590U 87027B   17322.89812122 -.00000200 +00000-0 -76263-4 0  9996
2 17590 071.0019 184.1923 0003049 049.8638 310.2752 14.16749399585803
Epoch (UTC): 18 November 2017 21:33:17
Eccentricity: 0.0003049
inclination: 71.0019°
perigee height: 834 km
apogee height: 838 km
right ascension of ascending node: 184.1923°
argument of perigee: 49.8638°
revolutions per day: 14.16749399
mean anomaly at epoch: 310.2752°
orbit number at epoch: 58580

The dashed part of the orbit path shows where the satellite is in the earth's shadow,  

DLR